RH
23 18 19 23 20 17 20 20 18 16 17 76 78 80 82 91 92 89 73 98 94 85 77 45 22 16 14 11 9 9 9 10 11 12 12 12 12 13 13 13 14 31 27
20 21 17 19 19 18 19 22 20 19 17 20 80 80 77 99 96 82 84 86 96 89 96 99 66 26 17 14 11 10 9 10 12 13 14 13 12 12 13 14 14 18 90
34 21 29 23 22 23 22 23 23 19 18 15 30 81 78 86 91 73 80 94 99 100 95 95 95 72 29 18 14 12 11 11 14 16 15 13 11 13 14 15 18 17 18
47 42 34 34 33 28 29 26 20 20 21 19 60 78 80 72 56 48 100 99 100 94 77 84 94 100 85 33 17 14 14 14 13 16 16 15 14 17 16 18 22 18 24
44 49 48 42 41 40 35 31 28 21 22 23 61 79 74 55 33 55 92 94 64 97 81 94 86 87 75 86 37 22 16 16 15 15 17 18 17 16 16 18 21 21 20
45 48 48 47 47 46 42 36 33 28 29 25 35 31 29 26 20 18 23 56 73 78 78 88 83 83 100 93 86 98 60 19 17 17 16 18 19 19 19 21 24 23 23
49 48 44 42 44 46 47 45 44 41 36 37 40 41 53 39 28 22 20 45 77 96 81 74 92 88 92 95 96 97 56 31 21 19 19 19 20 21 20 20 21 23 25
50 48 43 36 34 33 35 37 44 47 42 41 47 54 74 88 42 35 19 25 59 64 76 73 95 61 69 78 100 96 83 98 61 32 21 21 20 20 21 22 22 23 24
61 51 45 41 38 37 35 37 39 42 42 40 44 56 82 81 78 60 39 25 33 50 53 60 60 58 90 78 84 93 92 99 99 100 71 24 23 22 22 23 23 24 22
85 71 65 60 57 52 49 42 46 46 40 37 40 47 43 68 75 71 75 40 44 68 79 77 70 96 92 88 93 80 82 91 77 80 95 98 54 25 24 23 24 24 25
100 98 91 80 70 64 58 50 44 41 39 41 42 46 45 44 46 45 68 76 57 82 82 68 84 86 85 91 92 100 88 78 99 98 82 96 94 48 27 25 26 25 26
100 100 100 99 86 74 63 59 53 50 47 44 42 42 50 48 47 47 68 84 72 56 62 56 46 53 73 79 84 85 86 93 85 100 100 91 96 55 36 29 26 27 28
97 98 99 99 92 84 80 67 61 58 54 53 52 68 57 60 59 64 82 84 76 42 44 45 44 63 87 84 85 99 85 100 100 99 97 100 100 100 80 35 33 31 32
97 98 99 100 98 92 83 89 93 99 87 94 77 80 79 71 65 70 81 91 77 47 54 81 79 74 80 94 100 98 94 99 100 100 99 100 100 100 94 60 41 37 36
96 97 97 98 97 98 99 96 97 100 100 99 100 100 96 81 84 91 90 73 64 72 78 77 66 63 64 81 78 96 89 100 99 96 99 100 100 100 91 49 47 47 42
96 96 96 97 97 97 98 98 99 99 100 100 99 99 92 90 100 84 100 98 92 86 84 71 57 60 92 100 99 100 100 96 100 100 89 100 100 100 99 81 69 95 72
96 96 96 96 96 96 97 97 98 99 98 100 98 94 95 88 98 99 99 97 99 88 78 69 56 58 85 99 100 100 100 100 100 99 93 99 99 100 99 98 96 82 78
97 97 96 95 96 96 97 96 97 97 98 99 99 100 94 98 99 99 99 99 89 83 81 83 81 93 93 81 98 99 100 99 95 93 93 100 99 99 99 97 95 81 67
97 97 97 96 96 96 95 96 96 98 97 98 99 99 99 99 98 98 98 99 99 100 97 91 92 100 98 98 99 100 91 100 90 96 88 93 97 99 98 96 94 77 74
99 98 99 97 96 95 96 95 95 96 97 98 98 98 98 98 98 98 99 98 99 98 100 88 100 99 98 99 99 98 99 99 94 92 95 100 100 96 97 98 98 95 97
100 100 100 98 96 96 95 94 95 94 95 96 96 97 98 98 98 98 98 99 98 99 100 98 99 99 98 99 99 100 85 81 98 96 85 90 92 96 86 97 100 98 96
100 100 98 96 97 97 96 96 96 95 94 95 96 96 97 97 98 98 98 99 98 96 98 100 98 98 99 98 98 100 99 96 99 100 94 69 77 78 75 75 81 88 88
100 100 99 98 99 98 97 97 97 95 94 96 95 95 96 96 97 97 97 96 98 98 98 98 98 98 98 98 100 100 79 64 66 60 57 49 45 51 66 67 64 69 84
100 99 98 99 97 96 96 97 98 97 95 96 96 95 96 96 96 96 96 96 97 97 97 97 98 99 98 96 98 90 49 41 38 36 34 29 27 24 24 26 33 40 60
97 98 95 97 98 98 97 97 96 97 96 96 96 95 95 96 96 96 96 96 95 96 97 96 84 84 95 96 90 56 65 67 68 76 73 57 39 30 25 25 28 30 35
73 79 88 92 93 96 97 98 98 98 97 97 97 96 95 96 96 96 96 96 96 98 97 96 96 87 70 67 82 91 92 98 100 97 98 96 88 77 56 50 39 34 36
Wind_Speed
41 44 47 44 41 39 37 34 32 30 32 32 33 31 30 29 29 27 21 20 26 24 23 22 23 23 22 21 20 20 21 20 19 18 18 18 19 19 20 20 20 19 16
40 37 42 46 43 40 38 38 35 32 34 32 33 33 32 31 34 31 28 29 26 22 23 22 22 23 23 22 22 22 22 21 21 20 19 21 20 21 21 21 21 21 29
27 40 36 41 44 42 40 40 36 33 33 31 34 35 36 36 38 34 28 28 30 26 22 24 24 25 25 24 22 22 22 21 21 20 21 23 22 20 20 21 21 22 22
28 29 35 32 40 42 39 37 37 35 32 32 33 34 36 36 33 35 28 37 33 28 27 25 29 25 26 24 23 23 23 24 24 23 23 23 22 21 20 21 23 24 22
38 32 30 32 36 42 39 37 35 36 34 34 32 35 37 33 31 32 39 41 36 29 27 30 25 25 31 24 26 25 24 24 25 24 23 23 22 23 22 20 20 21 23
43 38 34 32 31 34 36 38 35 35 36 35 34 35 33 32 32 33 37 36 37 35 41 32 32 31 28 31 27 25 26 25 25 25 25 23 24 24 23 21 21 21 21
39 39 37 36 34 34 35 38 37 37 37 35 34 34 33 32 32 32 34 36 38 36 35 33 32 33 35 31 26 26 25 25 25 24 24 25 24 25 26 26 26 25 24
38 40 40 39 40 39 39 40 40 39 38 38 37 36 36 33 32 32 32 35 37 37 35 35 37 34 32 31 28 32 32 29 27 25 26 25 26 27 28 28 28 28 29
35 37 38 39 40 39 41 42 43 43 41 40 40 39 37 37 34 31 31 33 33 33 33 33 34 36 29 31 38 34 35 31 30 27 27 26 28 30 31 31 31 32 32
32 31 31 32 33 35 38 42 42 42 41 41 42 42 37 36 35 33 32 33 31 33 34 33 29 35 32 32 34 34 29 32 32 38 34 33 30 32 33 33 34 34 34
25 30 30 30 30 32 34 37 40 39 37 39 39 42 39 37 37 35 37 36 38 38 37 35 35 35 35 36 37 38 36 35 36 35 38 39 39 36 35 35 35 36 35
21 22 24 27 29 30 33 35 36 38 39 40 41 41 45 42 41 37 39 38 38 39 38 38 38 38 41 40 39 38 38 34 31 39 41 42 39 36 38 39 38 38 36
18 21 22 22 24 28 28 27 31 32 35 37 40 39 45 46 44 38 38 39 36 37 38 38 38 38 39 39 35 37 38 39 36 33 34 41 45 44 40 41 38 39 37
15 18 19 20 22 23 27 29 26 21 23 22 27 35 39 42 42 37 40 36 36 34 35 34 35 38 38 44 41 39 42 39 36 35 34 37 41 46 48 41 37 39 40
10 15 17 19 20 22 23 24 30 30 23 30 29 30 30 31 31 29 31 34 35 33 33 34 35 36 39 43 45 45 46 32 35 37 40 38 45 50 41 45 41 39 42
6 11 14 16 19 20 22 23 21 28 34 36 27 29 31 34 28 30 31 38 34 32 32 31 32 35 31 34 36 40 38 44 41 36 35 41 41 46 51 53 49 46 42
2 6 10 13 16 17 19 22 22 25 26 30 33 33 29 29 32 31 32 29 32 30 29 29 31 33 33 32 40 34 38 40 37 38 38 41 45 44 42 44 38 41 42
1 2 5 9 11 14 16 19 19 20 21 28 21 31 37 35 34 36 32 30 26 23 22 20 19 22 20 25 27 33 33 30 33 33 35 37 32 40 42 41 38 38 37
5 2 1 4 8 11 13 16 17 18 22 20 20 22 32 33 27 25 29 30 24 23 21 21 15 14 9 11 18 22 24 20 18 16 14 17 22 22 39 46 39 38 40
6 4 2 1 4 6 8 11 17 19 18 20 25 24 24 27 27 25 24 27 29 26 27 25 21 22 15 15 16 20 19 18 11 14 11 5 10 14 15 25 43 40 30
7 6 5 3 2 4 5 7 9 15 18 19 21 22 23 22 22 24 23 24 25 26 31 25 26 26 25 20 16 16 13 15 13 11 9 9 7 8 6 7 12 12 16
7 6 5 4 3 1 3 4 5 9 11 17 22 23 22 23 23 18 23 29 27 18 22 25 23 25 23 22 20 18 18 18 18 16 18 12 11 11 13 15 15 16 17
6 6 6 6 5 3 1 2 3 7 8 10 16 18 19 21 26 29 30 24 24 27 23 24 23 24 25 23 25 22 18 18 19 20 18 18 18 21 22 24 26 25 24
6 5 5 6 6 4 3 1 2 4 7 8 12 15 16 16 17 19 23 25 27 32 30 31 27 28 28 30 28 22 18 17 17 17 15 14 16 17 18 18 18 19 21
9 8 6 5 4 4 4 2 1 2 4 6 8 11 13 15 16 18 18 17 17 17 20 23 22 24 23 23 23 21 18 18 16 14 14 15 16 17 18 19 19 18 18
7 8 8 8 8 6 5 4 3 2 2 3 5 7 6 7 8 12 15 17 19 19 18 18 20 19 18 19 21 22 22 22 25 25 24 24 24 24 25 22 21 21 21
Wind_Direction
230 235 235 235 234 230 230 233 228 224 223 217 216 212 212 216 227 225 229 213 230 241 231 227 233 235 234 232 230 230 232 235 237 234 232 232 234 237 234 231 234 234 248
227 228 230 230 231 231 228 229 229 224 226 223 216 217 217 215 227 236 224 221 233 236 229 233 237 238 237 235 233 233 235 237 241 240 236 238 236 238 238 239 235 229 221
226 223 227 223 224 227 225 221 226 225 226 225 221 215 218 222 225 224 216 226 224 212 223 234 240 238 237 235 235 235 238 241 243 241 240 241 245 246 244 249 247 245 240
221 220 223 225 219 221 220 221 219 221 221 220 217 214 222 225 231 222 233 223 222 235 236 239 228 231 239 236 233 234 234 237 240 240 239 243 246 246 245 244 245 252 247
226 225 222 220 216 217 220 221 219 216 214 214 214 216 224 226 224 225 225 221 230 225 235 227 226 232 243 240 238 237 238 239 242 243 242 243 245 246 247 248 250 250 253
228 228 223 220 215 214 214 214 214 210 210 210 211 218 223 225 225 224 223 221 227 233 231 239 235 234 232 234 246 243 242 243 244 245 246 244 244 245 245 245 247 250 247
226 227 226 224 221 214 210 211 212 208 207 209 212 216 219 222 225 223 223 221 223 225 233 236 225 233 237 235 239 243 241 242 243 245 248 248 246 245 244 243 242 243 247
225 229 230 228 226 225 222 219 217 217 215 215 216 217 222 225 227 227 224 221 222 229 233 232 235 235 239 241 234 244 243 238 240 243 246 248 249 249 247 245 246 245 245
228 229 234 234 231 230 224 222 221 221 221 222 224 224 226 229 231 233 230 224 223 222 230 235 237 232 230 236 232 245 246 236 249 245 244 247 247 247 247 246 246 248 247
221 224 225 228 228 225 224 222 221 222 226 225 225 229 232 233 236 238 236 230 222 226 229 232 229 220 233 235 236 237 247 256 251 255 254 244 249 250 248 248 249 250 252
220 224 224 224 226 223 221 221 223 224 220 219 221 226 231 234 238 241 233 233 225 227 232 234 232 232 231 233 236 248 245 253 254 261 247 257 244 247 251 250 249 250 252
206 216 224 222 221 226 224 223 223 225 225 225 225 226 228 232 240 241 234 236 235 231 235 235 239 238 238 238 241 243 245 255 247 253 257 246 251 246 246 249 249 250 251
192 205 216 225 222 223 226 225 222 223 226 226 224 222 225 228 237 235 236 237 237 235 236 240 242 241 242 240 244 246 248 255 250 246 256 244 243 250 245 246 250 253 250
190 194 202 211 219 220 222 222 223 219 220 213 221 225 224 231 235 234 233 234 235 236 242 241 245 247 246 241 246 243 242 254 244 245 248 249 243 249 241 242 245 251 255
202 197 194 202 207 214 219 223 220 212 211 212 222 223 231 229 231 228 229 224 225 233 238 244 251 252 250 246 246 250 240 242 244 249 251 250 247 249 240 239 238 242 247
206 206 204 199 209 206 212 219 227 220 222 225 223 225 233 233 223 219 232 225 225 232 242 248 253 255 250 242 248 243 242 247 247 248 250 250 250 247 248 235 233 238 246
201 211 214 212 210 210 206 207 210 213 217 225 230 229 235 218 235 222 224 223 234 237 244 249 253 254 249 243 238 238 243 244 249 257 261 262 252 249 244 241 243 245 248
40 220 221 225 223 219 217 214 206 200 206 220 225 225 224 235 229 214 231 225 223 228 232 240 249 249 255 242 235 240 246 249 256 253 250 251 256 256 250 238 237 246 244
26 21 218 239 235 231 229 226 222 212 213 211 212 208 207 205 210 214 215 216 231 216 231 239 245 250 248 239 226 227 247 233 237 242 240 246 243 256 251 246 237 246 253
32 25 22 299 260 253 241 239 238 231 220 210 209 207 211 215 227 229 226 223 216 220 234 244 226 229 236 215 231 233 241 226 232 243 240 236 253 240 241 265 248 237 239
25 32 25 11 284 271 265 250 249 245 239 231 217 209 201 204 205 219 224 214 227 232 229 243 220 236 235 237 228 226 215 214 220 237 262 243 228 247 256 263 272 271 257
7 12 24 21 14 296 257 261 252 257 238 237 232 221 212 204 215 211 204 206 215 212 228 226 228 221 217 220 229 222 238 237 227 229 251 249 262 265 269 265 263 265 262
4 2 9 10 16 21 319 260 246 248 250 238 230 221 216 216 215 220 227 216 199 194 204 206 210 222 220 223 221 232 249 237 243 253 255 260 262 252 252 256 255 253 258
7 1 359 2 356 358 11 334 232 222 240 237 238 224 214 212 213 215 219 221 221 224 227 235 228 231 234 234 237 245 242 238 233 235 248 263 269 267 263 260 253 247 246
359 8 4 0 353 340 343 358 325 238 225 227 219 227 213 203 201 203 208 213 219 223 224 223 232 239 241 235 221 230 230 239 246 254 265 269 273 275 271 267 265 262 260
342 348 356 353 353 351 337 331 341 320 267 230 224 223 216 205 203 209 208 209 209 208 215 223 228 230 237 236 240 241 248 256 265 276 273 276 275 277 270 269 269 270 272